TimeCDT,TemperatureF,Dew PointF,Humidity,Sea Level PressureIn,VisibilityMPH,Wind Direction,Wind SpeedMPH,Gust SpeedMPH,PrecipitationIn,Events,Conditions,WindDirDegrees,DateUTC
12:53 AM,42.1,28.0,58,30.08,10.0,East,11.5,-,0.00,Rain,Light Rain,90,2012-11-03 05:53:00
1:53 AM,41.0,28.9,62,30.08,10.0,East,9.2,-,0.00,Rain,Light Rain,80,2012-11-03 06:53:00
2:53 AM,41.0,28.9,62,30.09,10.0,NE,8.1,-,0.00,,Overcast,50,2012-11-03 07:53:00
3:53 AM,41.0,28.9,62,30.09,10.0,ENE,8.1,-,N/A,,Overcast,60,2012-11-03 08:53:00
4:53 AM,41.0,28.0,60,30.09,10.0,ENE,9.2,-,N/A,,Overcast,70,2012-11-03 09:53:00
5:53 AM,39.9,28.0,63,30.12,10.0,NE,6.9,-,N/A,,Mostly Cloudy,40,2012-11-03 10:53:00
6:53 AM,39.0,28.9,67,30.13,10.0,NE,8.1,-,N/A,,Overcast,40,2012-11-03 11:53:00
7:53 AM,39.9,30.0,68,30.14,10.0,NE,10.4,-,N/A,,Overcast,40,2012-11-03 12:53:00
8:53 AM,39.9,30.9,70,30.18,10.0,ENE,9.2,-,N/A,,Overcast,60,2012-11-03 13:53:00
9:53 AM,43.0,33.1,68,30.18,10.0,ENE,12.7,-,N/A,,Mostly Cloudy,70,2012-11-03 14:53:00
10:53 AM,45.0,33.1,63,30.19,10.0,East,10.4,-,N/A,,Clear,90,2012-11-03 15:53:00
11:53 AM,48.0,34.0,58,30.19,10.0,East,6.9,-,N/A,,Partly Cloudy,100,2012-11-03 16:53:00
12:53 PM,48.9,34.0,56,30.17,10.0,ENE,5.8,-,N/A,,Clear,70,2012-11-03 17:53:00
1:53 PM,51.1,30.9,46,30.17,10.0,NE,5.8,-,N/A,,Partly Cloudy,40,2012-11-03 18:53:00
2:53 PM,52.0,30.9,45,30.16,10.0,NNE,6.9,-,N/A,,Clear,30,2012-11-03 19:53:00
3:53 PM,52.0,30.0,43,30.17,10.0,North,4.6,-,N/A,,Overcast,350,2012-11-03 20:53:00
4:53 PM,51.1,28.9,43,30.17,10.0,ENE,6.9,-,N/A,,Clear,60,2012-11-03 21:53:00
5:53 PM,46.9,30.0,52,30.18,8.0,NE,5.8,-,N/A,,Clear,50,2012-11-03 22:53:00
6:53 PM,43.0,28.9,58,30.19,10.0,ENE,6.9,-,N/A,,Clear,70,2012-11-03 23:53:00
7:53 PM,39.9,30.0,68,30.21,10.0,East,5.8,-,N/A,,Clear,80,2012-11-04 00:53:00
8:53 PM,39.0,28.9,67,30.21,10.0,East,4.6,-,N/A,,Clear,80,2012-11-04 01:53:00
9:53 PM,39.0,28.9,67,30.22,10.0,East,4.6,-,N/A,,Clear,100,2012-11-04 02:53:00
10:53 PM,33.1,28.0,82,30.22,10.0,SE,5.8,-,N/A,,Clear,130,2012-11-04 03:53:00
11:53 PM,35.1,28.9,78,30.22,10.0,SE,3.5,-,N/A,,Partly Cloudy,140,2012-11-04 04:53:00